owner,sensor,date,latitude,longitude,relative_humidity,qcFlag 
COMPS,ioos:station:USF.COMPS:C10:1,2013-11-11T19:05:00Z,27.1690,-82.9260,77.12,1111122 
COMPS,ioos:station:USF.COMPS:C10:1,2013-11-11T19:35:00Z,27.1690,-82.9260,80.55,1111122 
COMPS,ioos:station:USF.COMPS:C10:1,2013-11-11T20:05:00Z,27.1690,-82.9260,80.01,1111122 
COMPS,ioos:station:USF.COMPS:C10:1,2013-11-11T20:35:00Z,27.1690,-82.9260,78.79,1111122 
COMPS,ioos:station:USF.COMPS:C10:1,2013-11-11T21:05:00Z,27.1690,-82.9260,78.35,1111122 
COMPS,ioos:station:USF.COMPS:C10:1,2013-11-11T21:35:00Z,27.1690,-82.9260,79.43,1111122 
COMPS,ioos:station:USF.COMPS:C10:1,2013-11-11T22:05:00Z,27.1690,-82.9260,80.45,1111122 
COMPS,ioos:station:USF.COMPS:C10:1,2013-11-11T22:35:00Z,27.1690,-82.9260,81.49,1111122 
COMPS,ioos:station:USF.COMPS:C10:1,2013-11-11T23:05:00Z,27.1690,-82.9260,81.57,1111122 
COMPS,ioos:station:USF.COMPS:C10:1,2013-11-11T23:35:00Z,27.1690,-82.9260,82.28,1111122 
COMPS,ioos:station:USF.COMPS:C10:1,2013-11-12T00:05:00Z,27.1690,-82.9260,83.38,1111122 
COMPS,ioos:station:USF.COMPS:C10:1,2013-11-12T00:35:00Z,27.1690,-82.9260,82.24,1111122 
COMPS,ioos:station:USF.COMPS:C10:1,2013-11-12T01:05:00Z,27.1690,-82.9260,81.45,1111122 
COMPS,ioos:station:USF.COMPS:C10:1,2013-11-12T01:35:00Z,27.1690,-82.9260,80.03,1111122 
COMPS,ioos:station:USF.COMPS:C10:1,2013-11-12T02:05:00Z,27.1690,-82.9260,80.26,1111122 
COMPS,ioos:station:USF.COMPS:C10:1,2013-11-12T02:35:00Z,27.1690,-82.9260,80.36,1111122 
COMPS,ioos:station:USF.COMPS:C10:1,2013-11-12T03:05:00Z,27.1690,-82.9260,80.31,1111122 
COMPS,ioos:station:USF.COMPS:C10:1,2013-11-12T03:35:00Z,27.1690,-82.9260,81.42,1111122 
COMPS,ioos:station:USF.COMPS:C10:1,2013-11-12T04:05:00Z,27.1690,-82.9260,80.79,1111122 
COMPS,ioos:station:USF.COMPS:C10:1,2013-11-12T04:35:00Z,27.1690,-82.9260,80.45,1111122 
COMPS,ioos:station:USF.COMPS:C10:1,2013-11-12T05:05:00Z,27.1690,-82.9260,77.45,1111122 
COMPS,ioos:station:USF.COMPS:C10:1,2013-11-12T05:35:00Z,27.1690,-82.9260,78.31,1111122 
COMPS,ioos:station:USF.COMPS:C10:1,2013-11-12T06:05:00Z,27.1690,-82.9260,78.94,1111122 
COMPS,ioos:station:USF.COMPS:C10:1,2013-11-12T06:35:00Z,27.1690,-82.9260,80.36,1111122 
COMPS,ioos:station:USF.COMPS:C10:1,2013-11-12T07:05:00Z,27.1690,-82.9260,80.62,1111122 
COMPS,ioos:station:USF.COMPS:C10:1,2013-11-12T07:35:00Z,27.1690,-82.9260,81.05,1111122 
COMPS,ioos:station:USF.COMPS:C10:1,2013-11-12T08:05:00Z,27.1690,-82.9260,81.45,1111122 
COMPS,ioos:station:USF.COMPS:C10:1,2013-11-12T08:35:00Z,27.1690,-82.9260,82.15,1111122 
COMPS,ioos:station:USF.COMPS:C10:1,2013-11-12T09:05:00Z,27.1690,-82.9260,82.69,1111122 
COMPS,ioos:station:USF.COMPS:C10:1,2013-11-12T09:35:00Z,27.1690,-82.9260,82.87,1111122 
COMPS,ioos:station:USF.COMPS:C10:1,2013-11-12T10:05:00Z,27.1690,-82.9260,83.07,1111122 
COMPS,ioos:station:USF.COMPS:C10:1,2013-11-12T10:35:00Z,27.1690,-82.9260,83.63,1111122 
COMPS,ioos:station:USF.COMPS:C10:1,2013-11-12T11:05:00Z,27.1690,-82.9260,83.73,1111122 
COMPS,ioos:station:USF.COMPS:C10:1,2013-11-12T11:35:00Z,27.1690,-82.9260,84.73,1111122 
COMPS,ioos:station:USF.COMPS:C10:1,2013-11-12T12:05:00Z,27.1690,-82.9260,85.19,1111122 
COMPS,ioos:station:USF.COMPS:C10:1,2013-11-12T12:35:00Z,27.1690,-82.9260,85.75,1111122 
COMPS,ioos:station:USF.COMPS:C10:1,2013-11-12T13:05:00Z,27.1690,-82.9260,85.61,1111122 
COMPS,ioos:station:USF.COMPS:C10:1,2013-11-12T13:35:00Z,27.1690,-82.9260,85.25,1111122 
COMPS,ioos:station:USF.COMPS:C10:1,2013-11-12T14:05:00Z,27.1690,-82.9260,84.99,1111122 
COMPS,ioos:station:USF.COMPS:C10:1,2013-11-12T14:35:00Z,27.1690,-82.9260,84.11,1111122 
COMPS,ioos:station:USF.COMPS:C10:1,2013-11-12T15:05:00Z,27.1690,-82.9260,83.43,1111122 
COMPS,ioos:station:USF.COMPS:C10:1,2013-11-12T15:35:00Z,27.1690,-82.9260,81.67,1111122 
COMPS,ioos:station:USF.COMPS:C10:1,2013-11-12T16:05:00Z,27.1690,-82.9260,81.57,1111122 
COMPS,ioos:station:USF.COMPS:C10:1,2013-11-12T16:35:00Z,27.1690,-82.9260,81.3,1111122 
COMPS,ioos:station:USF.COMPS:C10:1,2013-11-12T17:05:00Z,27.1690,-82.9260,80.88,1111122 
COMPS,ioos:station:USF.COMPS:C10:1,2013-11-12T17:35:00Z,27.1690,-82.9260,79.86,1111122 
COMPS,ioos:station:USF.COMPS:C10:1,2013-11-12T18:05:00Z,27.1690,-82.9260,80.59,1111122 
COMPS,ioos:station:USF.COMPS:C10:1,2013-11-12T18:35:00Z,27.1690,-82.9260,79.5,1111122 
COMPS,ioos:station:USF.COMPS:C10:1,2013-11-14T22:05:00Z,27.1690,-82.9260,59.47,1111122 
COMPS,ioos:station:USF.COMPS:C10:1,2013-11-14T22:35:00Z,27.1690,-82.9260,61.03,1111122 
COMPS,ioos:station:USF.COMPS:C10:1,2013-11-14T23:05:00Z,27.1690,-82.9260,62.17,1111122 
COMPS,ioos:station:USF.COMPS:C10:1,2013-11-14T23:35:00Z,27.1690,-82.9260,61.48,1111122 
COMPS,ioos:station:USF.COMPS:C10:1,2013-11-15T01:05:00Z,27.1690,-82.9260,61.21,1111122 
COMPS,ioos:station:USF.COMPS:C10:1,2013-11-15T01:35:00Z,27.1690,-82.9260,62.69,1111122 
COMPS,ioos:station:USF.COMPS:C10:1,2013-11-15T02:05:00Z,27.1690,-82.9260,65.27,1111122 
COMPS,ioos:station:USF.COMPS:C10:1,2013-11-15T02:35:00Z,27.1690,-82.9260,66.1,1111122 
COMPS,ioos:station:USF.COMPS:C10:1,2013-11-15T03:05:00Z,27.1690,-82.9260,67.0,1111122 
COMPS,ioos:station:USF.COMPS:C10:1,2013-11-15T03:35:00Z,27.1690,-82.9260,68.12,1111122 
COMPS,ioos:station:USF.COMPS:C10:1,2013-11-15T04:05:00Z,27.1690,-82.9260,67.7,1111122 
COMPS,ioos:station:USF.COMPS:C10:1,2013-11-15T04:35:00Z,27.1690,-82.9260,69.41,1111122 
COMPS,ioos:station:USF.COMPS:C10:1,2013-11-15T05:05:00Z,27.1690,-82.9260,70.37,1111122 
COMPS,ioos:station:USF.COMPS:C10:1,2013-11-15T05:35:00Z,27.1690,-82.9260,70.81,1111122 
COMPS,ioos:station:USF.COMPS:C10:1,2013-11-15T06:05:00Z,27.1690,-82.9260,71.48,1111122 
COMPS,ioos:station:USF.COMPS:C10:1,2013-11-15T06:35:00Z,27.1690,-82.9260,70.53,1111122 
COMPS,ioos:station:USF.COMPS:C10:1,2013-11-15T07:05:00Z,27.1690,-82.9260,70.06,1111122 
COMPS,ioos:station:USF.COMPS:C10:1,2013-11-15T07:35:00Z,27.1690,-82.9260,69.14,1111122 
COMPS,ioos:station:USF.COMPS:C10:1,2013-11-15T08:05:00Z,27.1690,-82.9260,70.67,1111122 
COMPS,ioos:station:USF.COMPS:C10:1,2013-11-15T08:35:00Z,27.1690,-82.9260,68.98,1111122 
COMPS,ioos:station:USF.COMPS:C10:1,2013-11-15T09:05:00Z,27.1690,-82.9260,69.71,1111122 
COMPS,ioos:station:USF.COMPS:C10:1,2013-11-15T09:35:00Z,27.1690,-82.9260,69.68,1111122 
COMPS,ioos:station:USF.COMPS:C10:1,2013-11-15T10:05:00Z,27.1690,-82.9260,70.83,1111122 
COMPS,ioos:station:USF.COMPS:C10:1,2013-11-15T10:35:00Z,27.1690,-82.9260,71.22,1111122 
COMPS,ioos:station:USF.COMPS:C10:1,2013-11-15T11:05:00Z,27.1690,-82.9260,71.31,1111122 
COMPS,ioos:station:USF.COMPS:C10:1,2013-11-15T11:35:00Z,27.1690,-82.9260,71.11,1111122 
COMPS,ioos:station:USF.COMPS:C10:1,2013-11-15T12:05:00Z,27.1690,-82.9260,71.4,1111122 
COMPS,ioos:station:USF.COMPS:C10:1,2013-11-15T12:35:00Z,27.1690,-82.9260,71.82,1111122 
COMPS,ioos:station:USF.COMPS:C10:1,2013-11-15T13:05:00Z,27.1690,-82.9260,71.6,1111122 
COMPS,ioos:station:USF.COMPS:C10:1,2013-11-15T13:35:00Z,27.1690,-82.9260,71.41,1111122 
COMPS,ioos:station:USF.COMPS:C10:1,2013-11-15T14:05:00Z,27.1690,-82.9260,72.49,1111122 
COMPS,ioos:station:USF.COMPS:C10:1,2013-11-15T14:35:00Z,27.1690,-82.9260,72.42,1111122 
COMPS,ioos:station:USF.COMPS:C10:1,2013-11-15T15:05:00Z,27.1690,-82.9260,71.99,1111122 
COMPS,ioos:station:USF.COMPS:C10:1,2013-11-15T15:35:00Z,27.1690,-82.9260,72.52,1111122 
COMPS,ioos:station:USF.COMPS:C10:1,2013-11-15T16:05:00Z,27.1690,-82.9260,72.73,1111122 
COMPS,ioos:station:USF.COMPS:C10:1,2013-11-15T16:35:00Z,27.1690,-82.9260,72.62,1111122 
COMPS,ioos:station:USF.COMPS:C10:1,2013-11-15T17:05:00Z,27.1690,-82.9260,72.3,1111122 
COMPS,ioos:station:USF.COMPS:C10:1,2013-11-15T17:35:00Z,27.1690,-82.9260,72.72,1111122 
COMPS,ioos:station:USF.COMPS:C10:1,2013-11-15T18:05:00Z,27.1690,-82.9260,74.59,1111122 
COMPS,ioos:station:USF.COMPS:C10:1,2013-11-15T18:35:00Z,27.1690,-82.9260,73.18,1111122 
COMPS,ioos:station:USF.COMPS:C10:1,2013-11-15T19:05:00Z,27.1690,-82.9260,74.07,1111122 
COMPS,ioos:station:USF.COMPS:C10:1,2013-11-15T19:35:00Z,27.1690,-82.9260,74.06,1111122 
COMPS,ioos:station:USF.COMPS:C10:1,2013-11-15T20:05:00Z,27.1690,-82.9260,73.92,1111122 
COMPS,ioos:station:USF.COMPS:C10:1,2013-11-15T20:35:00Z,27.1690,-82.9260,73.84,1111122 
COMPS,ioos:station:USF.COMPS:C10:1,2013-11-15T21:05:00Z,27.1690,-82.9260,73.93,1111122 
COMPS,ioos:station:USF.COMPS:C10:1,2013-11-15T21:35:00Z,27.1690,-82.9260,73.91,1111122 
COMPS,ioos:station:USF.COMPS:C10:1,2013-11-18T09:05:00Z,27.1690,-82.9260,90.83,1111122 
COMPS,ioos:station:USF.COMPS:C10:1,2013-11-18T09:35:00Z,27.1690,-82.9260,90.88,1111122 
COMPS,ioos:station:USF.COMPS:C10:1,2013-11-18T10:05:00Z,27.1690,-82.9260,91.24,1111122 
COMPS,ioos:station:USF.COMPS:C10:1,2013-11-18T10:35:00Z,27.1690,-82.9260,91.44,1111122 
COMPS,ioos:station:USF.COMPS:C10:1,2013-11-18T11:05:00Z,27.1690,-82.9260,91.09,1111122 
COMPS,ioos:station:USF.COMPS:C10:1,2013-11-18T11:35:00Z,27.1690,-82.9260,90.95,1111122 
COMPS,ioos:station:USF.COMPS:C10:1,2013-11-18T12:05:00Z,27.1690,-82.9260,90.87,1111122 
COMPS,ioos:station:USF.COMPS:C10:1,2013-11-18T12:35:00Z,27.1690,-82.9260,89.73,1111122 
COMPS,ioos:station:USF.COMPS:C10:1,2013-11-18T13:05:00Z,27.1690,-82.9260,88.71,1111122 
COMPS,ioos:station:USF.COMPS:C10:1,2013-11-18T13:35:00Z,27.1690,-82.9260,88.93,1111122 
COMPS,ioos:station:USF.COMPS:C10:1,2013-11-18T14:05:00Z,27.1690,-82.9260,88.64,1111122 
COMPS,ioos:station:USF.COMPS:C10:1,2013-11-18T14:35:00Z,27.1690,-82.9260,88.83,1111122 
COMPS,ioos:station:USF.COMPS:C10:1,2013-11-18T15:05:00Z,27.1690,-82.9260,88.89,1111122 
COMPS,ioos:station:USF.COMPS:C10:1,2013-11-18T15:35:00Z,27.1690,-82.9260,88.8,1111122 
COMPS,ioos:station:USF.COMPS:C10:1,2013-11-18T16:05:00Z,27.1690,-82.9260,88.72,1111122 
COMPS,ioos:station:USF.COMPS:C10:1,2013-11-18T16:35:00Z,27.1690,-82.9260,88.47,1111122 
COMPS,ioos:station:USF.COMPS:C10:1,2013-11-18T17:05:00Z,27.1690,-82.9260,87.41,1111122 
COMPS,ioos:station:USF.COMPS:C10:1,2013-11-18T17:35:00Z,27.1690,-82.9260,85.64,1111122 
COMPS,ioos:station:USF.COMPS:C10:1,2013-11-18T18:05:00Z,27.1690,-82.9260,85.06,1111122 
COMPS,ioos:station:USF.COMPS:C10:1,2013-11-18T18:35:00Z,27.1690,-82.9260,82.96,1111122 
COMPS,ioos:station:USF.COMPS:C10:1,2013-11-18T19:05:00Z,27.1690,-82.9260,83.0,1111122 
COMPS,ioos:station:USF.COMPS:C10:1,2013-11-18T19:35:00Z,27.1690,-82.9260,83.65,1111122 
COMPS,ioos:station:USF.COMPS:C10:1,2013-11-18T20:05:00Z,27.1690,-82.9260,84.06,1111122 
COMPS,ioos:station:USF.COMPS:C10:1,2013-11-18T20:35:00Z,27.1690,-82.9260,84.64,1111122 
COMPS,ioos:station:USF.COMPS:C10:1,2013-11-18T21:05:00Z,27.1690,-82.9260,85.07,1111122 
COMPS,ioos:station:USF.COMPS:C10:1,2013-11-18T21:35:00Z,27.1690,-82.9260,85.39,1111122 
COMPS,ioos:station:USF.COMPS:C10:1,2013-11-18T22:05:00Z,27.1690,-82.9260,86.92,1111122 
COMPS,ioos:station:USF.COMPS:C10:1,2013-11-18T22:35:00Z,27.1690,-82.9260,87.65,1111122 
COMPS,ioos:station:USF.COMPS:C10:1,2013-11-18T23:05:00Z,27.1690,-82.9260,88.37,1111122 
COMPS,ioos:station:USF.COMPS:C10:1,2013-11-18T23:35:00Z,27.1690,-82.9260,88.93,1111122 
COMPS,ioos:station:USF.COMPS:C10:1,2013-11-19T00:05:00Z,27.1690,-82.9260,89.23,1111122 
COMPS,ioos:station:USF.COMPS:C10:1,2013-11-19T00:35:00Z,27.1690,-82.9260,89.5,1111122 
COMPS,ioos:station:USF.COMPS:C10:1,2013-11-19T01:05:00Z,27.1690,-82.9260,89.6,1111122 
COMPS,ioos:station:USF.COMPS:C10:1,2013-11-19T01:35:00Z,27.1690,-82.9260,89.7,1111122 
COMPS,ioos:station:USF.COMPS:C10:1,2013-11-19T02:05:00Z,27.1690,-82.9260,89.9,1111122 
COMPS,ioos:station:USF.COMPS:C10:1,2013-11-19T02:35:00Z,27.1690,-82.9260,89.86,1111122 
COMPS,ioos:station:USF.COMPS:C10:1,2013-11-19T03:05:00Z,27.1690,-82.9260,89.82,1111122 
COMPS,ioos:station:USF.COMPS:C10:1,2013-11-19T03:35:00Z,27.1690,-82.9260,90.42,1111122 
COMPS,ioos:station:USF.COMPS:C10:1,2013-11-19T04:05:00Z,27.1690,-82.9260,90.72,1111122 
COMPS,ioos:station:USF.COMPS:C10:1,2013-11-19T04:35:00Z,27.1690,-82.9260,88.41,1111122 
COMPS,ioos:station:USF.COMPS:C10:1,2013-11-19T05:05:00Z,27.1690,-82.9260,86.18,1111122 
COMPS,ioos:station:USF.COMPS:C10:1,2013-11-19T05:35:00Z,27.1690,-82.9260,84.97,1111122 
COMPS,ioos:station:USF.COMPS:C10:1,2013-11-19T06:05:00Z,27.1690,-82.9260,87.09,1111122 
COMPS,ioos:station:USF.COMPS:C10:1,2013-11-19T06:35:00Z,27.1690,-82.9260,87.74,1111122 
COMPS,ioos:station:USF.COMPS:C10:1,2013-11-19T07:05:00Z,27.1690,-82.9260,88.39,1111122 
COMPS,ioos:station:USF.COMPS:C10:1,2013-11-19T07:35:00Z,27.1690,-82.9260,88.26,1111122 
COMPS,ioos:station:USF.COMPS:C10:1,2013-11-19T08:05:00Z,27.1690,-82.9260,86.67,1111122 
COMPS,ioos:station:USF.COMPS:C10:1,2013-11-19T08:35:00Z,27.1690,-82.9260,87.19,1111122 
COMPS,ioos:station:USF.COMPS:C10:1,2013-11-20T10:05:00Z,27.1690,-82.9260,84.45,1111122 
COMPS,ioos:station:USF.COMPS:C10:1,2013-11-20T10:35:00Z,27.1690,-82.9260,84.5,1111122 
COMPS,ioos:station:USF.COMPS:C10:1,2013-11-20T11:05:00Z,27.1690,-82.9260,84.55,1111122 
COMPS,ioos:station:USF.COMPS:C10:1,2013-11-20T11:35:00Z,27.1690,-82.9260,84.93,1111122 
COMPS,ioos:station:USF.COMPS:C10:1,2013-11-20T12:05:00Z,27.1690,-82.9260,85.28,1111122 
COMPS,ioos:station:USF.COMPS:C10:1,2013-11-20T12:35:00Z,27.1690,-82.9260,84.58,1111122 
COMPS,ioos:station:USF.COMPS:C10:1,2013-11-20T13:05:00Z,27.1690,-82.9260,84.82,1111122 
COMPS,ioos:station:USF.COMPS:C10:1,2013-11-20T13:35:00Z,27.1690,-82.9260,84.84,1111122 
COMPS,ioos:station:USF.COMPS:C10:1,2013-11-20T14:05:00Z,27.1690,-82.9260,84.76,1111122 
COMPS,ioos:station:USF.COMPS:C10:1,2013-11-20T14:35:00Z,27.1690,-82.9260,84.89,1111122 
COMPS,ioos:station:USF.COMPS:C10:1,2013-11-20T15:05:00Z,27.1690,-82.9260,84.8,1111122 
COMPS,ioos:station:USF.COMPS:C10:1,2013-11-20T15:35:00Z,27.1690,-82.9260,84.86,1111122 
COMPS,ioos:station:USF.COMPS:C10:1,2013-11-20T16:05:00Z,27.1690,-82.9260,85.37,1111122 
COMPS,ioos:station:USF.COMPS:C10:1,2013-11-20T16:35:00Z,27.1690,-82.9260,85.08,1111122 
COMPS,ioos:station:USF.COMPS:C10:1,2013-11-20T17:05:00Z,27.1690,-82.9260,84.64,1111122 
COMPS,ioos:station:USF.COMPS:C10:1,2013-11-20T17:35:00Z,27.1690,-82.9260,84.47,1111122 
COMPS,ioos:station:USF.COMPS:C10:1,2013-11-20T18:05:00Z,27.1690,-82.9260,83.92,1111122 
COMPS,ioos:station:USF.COMPS:C10:1,2013-11-20T18:35:00Z,27.1690,-82.9260,84.51,1111122 
COMPS,ioos:station:USF.COMPS:C10:1,2013-11-20T19:05:00Z,27.1690,-82.9260,85.1,1111122 
COMPS,ioos:station:USF.COMPS:C10:1,2013-11-20T19:35:00Z,27.1690,-82.9260,85.63,1111122 
COMPS,ioos:station:USF.COMPS:C10:1,2013-11-20T20:05:00Z,27.1690,-82.9260,84.97,1111122 
COMPS,ioos:station:USF.COMPS:C10:1,2013-11-20T20:35:00Z,27.1690,-82.9260,84.33,1111122 
COMPS,ioos:station:USF.COMPS:C10:1,2013-11-20T21:05:00Z,27.1690,-82.9260,85.71,1111122 
COMPS,ioos:station:USF.COMPS:C10:1,2013-11-20T21:35:00Z,27.1690,-82.9260,86.39,1111122 
COMPS,ioos:station:USF.COMPS:C10:1,2013-11-20T22:05:00Z,27.1690,-82.9260,85.13,1111122 
COMPS,ioos:station:USF.COMPS:C10:1,2013-11-20T22:35:00Z,27.1690,-82.9260,84.54,1111122 
COMPS,ioos:station:USF.COMPS:C10:1,2013-11-20T23:05:00Z,27.1690,-82.9260,86.86,1111122 
COMPS,ioos:station:USF.COMPS:C10:1,2013-11-20T23:35:00Z,27.1690,-82.9260,88.1,1111122 
COMPS,ioos:station:USF.COMPS:C10:1,2013-11-21T00:05:00Z,27.1690,-82.9260,86.06,1111122 
COMPS,ioos:station:USF.COMPS:C10:1,2013-11-21T00:35:00Z,27.1690,-82.9260,85.33,1111122 
COMPS,ioos:station:USF.COMPS:C10:1,2013-11-21T01:05:00Z,27.1690,-82.9260,86.71,1111122 
COMPS,ioos:station:USF.COMPS:C10:1,2013-11-21T01:35:00Z,27.1690,-82.9260,85.76,1111122 
COMPS,ioos:station:USF.COMPS:C10:1,2013-11-21T02:05:00Z,27.1690,-82.9260,84.47,1111122 
COMPS,ioos:station:USF.COMPS:C10:1,2013-11-21T02:35:00Z,27.1690,-82.9260,84.51,1111122 
COMPS,ioos:station:USF.COMPS:C10:1,2013-11-21T03:05:00Z,27.1690,-82.9260,84.8,1111122 
COMPS,ioos:station:USF.COMPS:C10:1,2013-11-21T03:35:00Z,27.1690,-82.9260,85.85,1111122 
COMPS,ioos:station:USF.COMPS:C10:1,2013-11-21T04:05:00Z,27.1690,-82.9260,85.68,1111122 
COMPS,ioos:station:USF.COMPS:C10:1,2013-11-21T04:35:00Z,27.1690,-82.9260,84.6,1111122 
COMPS,ioos:station:USF.COMPS:C10:1,2013-11-21T05:05:00Z,27.1690,-82.9260,84.14,1111122 
COMPS,ioos:station:USF.COMPS:C10:1,2013-11-21T05:35:00Z,27.1690,-82.9260,83.76,1111122 
COMPS,ioos:station:USF.COMPS:C10:1,2013-11-21T06:05:00Z,27.1690,-82.9260,83.88,1111122 
COMPS,ioos:station:USF.COMPS:C10:1,2013-11-21T06:35:00Z,27.1690,-82.9260,84.8,1111122 
COMPS,ioos:station:USF.COMPS:C10:1,2013-11-21T07:05:00Z,27.1690,-82.9260,85.29,1111122 
COMPS,ioos:station:USF.COMPS:C10:1,2013-11-21T07:35:00Z,27.1690,-82.9260,86.02,1111122 
COMPS,ioos:station:USF.COMPS:C10:1,2013-11-21T08:05:00Z,27.1690,-82.9260,86.8,1111122 
COMPS,ioos:station:USF.COMPS:C10:1,2013-11-21T08:35:00Z,27.1690,-82.9260,87.29,1111122 
COMPS,ioos:station:USF.COMPS:C10:1,2013-11-21T09:05:00Z,27.1690,-82.9260,86.89,1111122 
COMPS,ioos:station:USF.COMPS:C10:1,2013-11-21T09:35:00Z,27.1690,-82.9260,87.99,1111122 
COMPS,ioos:station:USF.COMPS:C10:1,2013-11-21T10:05:00Z,27.1690,-82.9260,88.26,1111122 
COMPS,ioos:station:USF.COMPS:C10:1,2013-11-21T10:35:00Z,27.1690,-82.9260,88.44,1111122 
COMPS,ioos:station:USF.COMPS:C10:1,2013-11-21T11:05:00Z,27.1690,-82.9260,88.6,1111122 
COMPS,ioos:station:USF.COMPS:C10:1,2013-11-21T11:35:00Z,27.1690,-82.9260,88.7,1111122 
COMPS,ioos:station:USF.COMPS:C10:1,2013-11-21T12:05:00Z,27.1690,-82.9260,88.94,1111122 
COMPS,ioos:station:USF.COMPS:C10:1,2013-11-21T12:35:00Z,27.1690,-82.9260,88.87,1111122 
COMPS,ioos:station:USF.COMPS:C10:1,2013-11-21T13:05:00Z,27.1690,-82.9260,88.86,1111122 
COMPS,ioos:station:USF.COMPS:C10:1,2013-11-21T13:35:00Z,27.1690,-82.9260,88.26,1111122 
COMPS,ioos:station:USF.COMPS:C10:1,2013-11-21T14:05:00Z,27.1690,-82.9260,88.15,1111122 
COMPS,ioos:station:USF.COMPS:C10:1,2013-11-21T14:35:00Z,27.1690,-82.9260,88.0,1111122 
COMPS,ioos:station:USF.COMPS:C10:1,2013-11-21T15:05:00Z,27.1690,-82.9260,87.88,1111122 
COMPS,ioos:station:USF.COMPS:C10:1,2013-11-21T15:35:00Z,27.1690,-82.9260,87.89,1111122 
COMPS,ioos:station:USF.COMPS:C10:1,2013-11-21T16:05:00Z,27.1690,-82.9260,87.59,1111122 
COMPS,ioos:station:USF.COMPS:C10:1,2013-11-21T16:35:00Z,27.1690,-82.9260,87.24,1111122 
COMPS,ioos:station:USF.COMPS:C10:1,2013-11-21T17:05:00Z,27.1690,-82.9260,87.44,1111122 
COMPS,ioos:station:USF.COMPS:C10:1,2013-11-21T17:35:00Z,27.1690,-82.9260,87.56,1111122 
COMPS,ioos:station:USF.COMPS:C10:1,2013-11-21T18:05:00Z,27.1690,-82.9260,87.48,1111122 
COMPS,ioos:station:USF.COMPS:C10:1,2013-11-21T18:35:00Z,27.1690,-82.9260,86.86,1111122 
COMPS,ioos:station:USF.COMPS:C10:1,2013-11-21T19:05:00Z,27.1690,-82.9260,85.7,1111122 
COMPS,ioos:station:USF.COMPS:C10:1,2013-11-21T19:35:00Z,27.1690,-82.9260,84.42,1111122 
COMPS,ioos:station:USF.COMPS:C10:1,2013-11-21T20:05:00Z,27.1690,-82.9260,81.19,1111122 
COMPS,ioos:station:USF.COMPS:C10:1,2013-11-21T20:35:00Z,27.1690,-82.9260,80.57,1111122 
COMPS,ioos:station:USF.COMPS:C10:1,2013-11-21T21:05:00Z,27.1690,-82.9260,83.54,1111122 
COMPS,ioos:station:USF.COMPS:C10:1,2013-11-21T21:35:00Z,27.1690,-82.9260,83.74,1111122 
COMPS,ioos:station:USF.COMPS:C10:1,2013-11-21T22:05:00Z,27.1690,-82.9260,86.0,1111122 
COMPS,ioos:station:USF.COMPS:C10:1,2013-11-21T22:35:00Z,27.1690,-82.9260,87.53,1111122 
COMPS,ioos:station:USF.COMPS:C10:1,2013-11-21T23:05:00Z,27.1690,-82.9260,85.31,1111122 
COMPS,ioos:station:USF.COMPS:C10:1,2013-11-21T23:35:00Z,27.1690,-82.9260,82.66,1111122 
COMPS,ioos:station:USF.COMPS:C10:1,2013-11-22T00:05:00Z,27.1690,-82.9260,82.82,1111122 
COMPS,ioos:station:USF.COMPS:C10:1,2013-11-22T00:35:00Z,27.1690,-82.9260,85.3,1111122 
COMPS,ioos:station:USF.COMPS:C10:1,2013-11-22T01:05:00Z,27.1690,-82.9260,85.53,1111122 
COMPS,ioos:station:USF.COMPS:C10:1,2013-11-22T01:35:00Z,27.1690,-82.9260,85.4,1111122 
COMPS,ioos:station:USF.COMPS:C10:1,2013-11-22T02:05:00Z,27.1690,-82.9260,86.0,1111122 
COMPS,ioos:station:USF.COMPS:C10:1,2013-11-22T02:35:00Z,27.1690,-82.9260,85.89,1111122 
COMPS,ioos:station:USF.COMPS:C10:1,2013-11-22T03:05:00Z,27.1690,-82.9260,86.14,1111122 
COMPS,ioos:station:USF.COMPS:C10:1,2013-11-22T03:35:00Z,27.1690,-82.9260,86.28,1111122 
COMPS,ioos:station:USF.COMPS:C10:1,2013-11-22T04:05:00Z,27.1690,-82.9260,85.85,1111122 
COMPS,ioos:station:USF.COMPS:C10:1,2013-11-22T04:35:00Z,27.1690,-82.9260,85.79,1111122 
COMPS,ioos:station:USF.COMPS:C10:1,2013-11-22T05:05:00Z,27.1690,-82.9260,86.55,1111122 
COMPS,ioos:station:USF.COMPS:C10:1,2013-11-22T05:35:00Z,27.1690,-82.9260,87.01,1111122 
COMPS,ioos:station:USF.COMPS:C10:1,2013-11-22T06:05:00Z,27.1690,-82.9260,86.93,1111122 
COMPS,ioos:station:USF.COMPS:C10:1,2013-11-22T06:35:00Z,27.1690,-82.9260,85.57,1111122 
COMPS,ioos:station:USF.COMPS:C10:1,2013-11-22T07:05:00Z,27.1690,-82.9260,84.83,1111122 
COMPS,ioos:station:USF.COMPS:C10:1,2013-11-22T07:35:00Z,27.1690,-82.9260,83.43,1111122 
COMPS,ioos:station:USF.COMPS:C10:1,2013-11-22T08:05:00Z,27.1690,-82.9260,83.8,1111122 
COMPS,ioos:station:USF.COMPS:C10:1,2013-11-22T08:35:00Z,27.1690,-82.9260,85.42,1111122 
COMPS,ioos:station:USF.COMPS:C10:1,2013-11-22T09:05:00Z,27.1690,-82.9260,85.95,1111122 
COMPS,ioos:station:USF.COMPS:C10:1,2013-11-22T09:35:00Z,27.1690,-82.9260,85.86,1111122 
COMPS,ioos:station:USF.COMPS:C10:1,2013-11-22T10:05:00Z,27.1690,-82.9260,86.65,1111122 
COMPS,ioos:station:USF.COMPS:C10:1,2013-11-22T10:35:00Z,27.1690,-82.9260,86.6,1111122 
COMPS,ioos:station:USF.COMPS:C10:1,2013-11-22T11:05:00Z,27.1690,-82.9260,86.32,1111122 
COMPS,ioos:station:USF.COMPS:C10:1,2013-11-22T11:35:00Z,27.1690,-82.9260,85.98,1111122 
COMPS,ioos:station:USF.COMPS:C10:1,2013-11-22T12:05:00Z,27.1690,-82.9260,87.2,1111122 
COMPS,ioos:station:USF.COMPS:C10:1,2013-11-22T12:35:00Z,27.1690,-82.9260,87.45,1111122 
COMPS,ioos:station:USF.COMPS:C10:1,2013-11-24T15:05:00Z,27.1690,-82.9260,81.35,1111122 
COMPS,ioos:station:USF.COMPS:C10:1,2013-11-24T15:35:00Z,27.1690,-82.9260,82.15,1111122 
COMPS,ioos:station:USF.COMPS:C10:1,2013-11-24T16:05:00Z,27.1690,-82.9260,82.64,1111122 
COMPS,ioos:station:USF.COMPS:C10:1,2013-11-24T16:35:00Z,27.1690,-82.9260,82.45,1111122 
COMPS,ioos:station:USF.COMPS:C10:1,2013-11-24T17:05:00Z,27.1690,-82.9260,82.39,1111122 
COMPS,ioos:station:USF.COMPS:C10:1,2013-11-24T17:35:00Z,27.1690,-82.9260,81.03,1111122 
COMPS,ioos:station:USF.COMPS:C10:1,2013-11-24T18:05:00Z,27.1690,-82.9260,80.37,1111122 
COMPS,ioos:station:USF.COMPS:C10:1,2013-11-24T18:35:00Z,27.1690,-82.9260,78.8,1111122 
COMPS,ioos:station:USF.COMPS:C10:1,2013-11-24T19:05:00Z,27.1690,-82.9260,77.47,1111122 
COMPS,ioos:station:USF.COMPS:C10:1,2013-11-24T19:35:00Z,27.1690,-82.9260,75.73,1111122 
COMPS,ioos:station:USF.COMPS:C10:1,2013-11-24T20:05:00Z,27.1690,-82.9260,73.43,1111122 
COMPS,ioos:station:USF.COMPS:C10:1,2013-11-24T20:35:00Z,27.1690,-82.9260,72.53,1111122 
COMPS,ioos:station:USF.COMPS:C10:1,2013-11-24T22:05:00Z,27.1690,-82.9260,73.2,1111122 
COMPS,ioos:station:USF.COMPS:C10:1,2013-11-24T22:35:00Z,27.1690,-82.9260,73.17,1111122 
COMPS,ioos:station:USF.COMPS:C10:1,2013-11-24T23:05:00Z,27.1690,-82.9260,72.51,1111122 
COMPS,ioos:station:USF.COMPS:C10:1,2013-11-24T23:35:00Z,27.1690,-82.9260,74.9,1111122 
COMPS,ioos:station:USF.COMPS:C10:1,2013-11-25T00:05:00Z,27.1690,-82.9260,75.48,1111122 
COMPS,ioos:station:USF.COMPS:C10:1,2013-11-25T00:35:00Z,27.1690,-82.9260,75.72,1111122 
COMPS,ioos:station:USF.COMPS:C10:1,2013-11-25T01:05:00Z,27.1690,-82.9260,76.37,1111122 
COMPS,ioos:station:USF.COMPS:C10:1,2013-11-25T01:35:00Z,27.1690,-82.9260,75.3,1111122 
COMPS,ioos:station:USF.COMPS:C10:1,2013-11-25T02:05:00Z,27.1690,-82.9260,76.58,1111122 
COMPS,ioos:station:USF.COMPS:C10:1,2013-11-25T02:35:00Z,27.1690,-82.9260,76.57,1111122 
COMPS,ioos:station:USF.COMPS:C10:1,2013-11-25T03:05:00Z,27.1690,-82.9260,76.5,1111122 
COMPS,ioos:station:USF.COMPS:C10:1,2013-11-25T03:35:00Z,27.1690,-82.9260,76.44,1111122 
COMPS,ioos:station:USF.COMPS:C10:1,2013-11-25T04:05:00Z,27.1690,-82.9260,77.26,1111122 
COMPS,ioos:station:USF.COMPS:C10:1,2013-11-25T04:35:00Z,27.1690,-82.9260,77.13,1111122 
COMPS,ioos:station:USF.COMPS:C10:1,2013-11-25T05:05:00Z,27.1690,-82.9260,79.77,1111122 
COMPS,ioos:station:USF.COMPS:C10:1,2013-11-25T05:35:00Z,27.1690,-82.9260,77.68,1111122 